DELTA 1 DEB (YO), 227

Orbit data source: Space-Track

DELTA 1 DEB (YO), 227 is space debris in LEO originally from a launch on Thu, 08 Feb 1962 UTC launched from the Air Force Eastern Test Range (AFETR). Debris objects in space refer to the collection of defunct objects orbiting the Earth. Examples of debris include non-operational satellites, rocket bodies, and fragments generated from explosions, collisions, or faulty payload assembly.

Loading next visibility...
Identifier
227, 1962-002B
Orbit
LEO
Last TLE update
14 hours ago
Origin
Manufacturer
RCA/East Windsor
Mission
Spacecraft
Bus & Motor
Unknown
Mass
~1 kg wet, ~1 kg dry
Launch date (UTC)
1962-02-08 (63 years ago)
Launch vehicle
Unknown
Launch site
Air Force Eastern Test Range (AFETR)
Object type
Payload
Rocket body
Debris
Shape & HBR
Unknown
Radar Cross Section
Small (<0.1 m²)

Expand to show TLE details & history

TLE from 14 hours ago
0 DELTA 1 DEB (YO)
1   227U 62002B   25186.14217369  .00000353  00000-0  15079-3 0  9992
2   227  48.1465 108.6587 0127690  68.9642 292.4855 14.40377338315044
Epoch: 2025-07-05T03:24Z
TLE epoch observation values (Epoch: 2025-07-05T03:24:43.806Z)
Latitude
-0.00007°
Longitude
134.09164°
Altitude
723.745 km
Speed
7.513 km/s
True Right ascension
07h 14m 38s
True Declination
0° 00' 00"
Sunlit
Object was in daylight at epoch
Visualization orbit readout
Latitude
47.38775°
Longitude
-124.06223°
Altitude
681.577 km
Speed
7.564 km/s
Apparent Right ascension
15h 35m 16s
Apparent Declination
7° 02' 47"
Sunlit
Object is in daylight
Visualization observer readout
Local Sidereal Time
05:06:17
Azimuth
29.396° NE
Elevation
-38.553°
Doppler factor
1
Orbital elements
Apogee altitude
849.417 km
Perigee altitude
667.167 km
Semi-major axis
7,136.429 km
Eccentricity
0.01277
Inclination
48.1465°
RAAN
108.6587°
Arg. of periapsis
68.9642°
True anomaly
Unknown
Mean anomaly
292.4855°
Eccentric anomaly
Unknown
Mean motion
3.60016 °/min
Orbital period
100 mins
BSTAR
0.00015079
Loading maneuver chart data...
Loading SW <> Apogee altitude chart data...
Loading historical data...
Loading historical data...
Loading historical data...
Loading historical data...
Loading historical data...
Loading historical data...
Loading historical data...
Other satellites on launch #2 in the year 1962 (1962-02-08 UTC)

DELTA 1 DEB (YO) Visibility forecast

Observer location: undefined°, undefined°

Span
Click to sort rows by Start time (UTC) header in descending order
Start Az.
Max El. time (UTC)
Max El. Az.
Max El.
End time (UTC)
End Az.
4 mins2025-07-05 20:12:57.847Z155.203° SSE2025-07-05 20:14:57.847Z129.655° SE13.1°2025-07-05 20:16:57.847Z104.255° ESE
7 mins2025-07-05 21:55:57.847Z224.801° SW2025-07-05 21:58:57.847Z137.978° SSE43.279°2025-07-05 22:02:57.847Z63.715° ENE
7 mins2025-07-05 23:40:57.847Z286.26° WNW2025-07-05 23:43:57.847Z350.126° N31.905°2025-07-05 23:47:57.847Z52.382° ENE
6 mins2025-07-06 01:26:57.847Z319.598° NNW2025-07-06 01:28:57.847Z357.62° N27.31°2025-07-06 01:32:57.847Z64.72° ENE
8 mins2025-07-06 03:10:57.847Z307.265° NW2025-07-06 03:14:57.847Z52.672° ENE41.072°2025-07-06 03:18:57.847Z106.51° ESE
7 mins2025-07-06 04:55:57.847Z275.315° WNW2025-07-06 04:58:57.847Z224.159° SW27.897°2025-07-06 05:02:57.847Z163.656° S
|